Regional Weather Roundup
Issued by NWS

Home | Current Version | Previous Version | Graphics & Text | Print | Product List | Glossary On
Versions: 1 2 3 4 5 6 7 8 9 10 11 12 13 14 15 16 17 18 19 20 21 22 23 24 25 26 27 28 29 30 31 32 33 34 35 36 37 38 39 40 41 42 43 44 45 46 47 48 49 50
449
ASUS43 KMKX 252011
RWRWI

WISCONSIN REGIONAL WEATHER ROUNDUP
NATIONAL WEATHER SERVICE MILWAUKEE/SULLIVAN WI
300 PM CDT TUE APR 25 2017

NOTE: "FAIR" INDICATES FEW OR NO CLOUDS BELOW 12,000 FEET WITH NO
SIGNIFICANT WEATHER AND/OR OBSTRUCTIONS TO VISIBILITY.

WIZ001-002-006>008-014>016-023>028-252100-
NORTHWEST WISCONSIN

CITY           SKY/WX    TMP DP  RH WIND       PRES   REMARKS
SUPERIOR ARPT  PTSUNNY   46  38  73 E14G21    29.63S
ASHLAND        PTSUNNY   53  39  59 N9        29.62R
HAYWARD        PTSUNNY   63  40  42 NE15      29.56S
SIREN          CLOUDY    65  43  45 CALM      29.54S
CUMBERLAND     CLOUDY    68  41  37 S6        29.53S
RICE LAKE      CLOUDY    72  40  31 SE5       29.54S
CHETEK         CLOUDY    71  46  40 SE8G18    29.52S
LADYSMITH      CLOUDY    72  41  32 S8        29.56S
EAU CLAIRE     LGT RAIN  69  44  40 SE18      29.53R
MENOMONIE      CLOUDY    67  46  46 S20       29.55R
NEW RICHMOND   CLOUDY    64  44  48 SW13      29.55R
OSCEOLA        CLOUDY    65  45  49 SW13      29.58R
$$

WIZ003>005-009-010-017-018-252100-
NORTH CENTRAL WISCONSIN

CITY           SKY/WX    TMP DP  RH WIND       PRES   REMARKS
MANITOWISH WTR PTSUNNY   73  39  29 S8        29.56F
ARBOR VITAE    CLOUDY    72  37  27 S8        29.57R
WOODRUFF       CLOUDY    72  37  27 S8        29.57R
RHINELANDER    MOSUNNY   75  37  25 SW13G21   29.58S
EAGLE RIVER    MOSUNNY   73  32  22 S8G17     29.58S
LAND O LAKES   CLOUDY    74  32  21 SW9       29.59S
PHILLIPS       CLOUDY    71  42  35 S13       29.54S
TOMAHAWK       CLOUDY    74  40  29 S5        29.58R
MEDFORD        CLOUDY    68  43  39 S10G16    29.56S
MERRILL        PTSUNNY   73  40  31 S8        29.57F
$$

WIZ029-030-035-036-043>047-252100-
CENTRAL WISCONSIN

CITY           SKY/WX    TMP DP  RH WIND       PRES   REMARKS
WAUSAU         MOSUNNY   74  36  25 S10G21    29.55S
MOSINEE        MOSUNNY   72  37  28 S13G22    29.58S
MARSHFIELD     CLOUDY    73  37  27 S15       29.55S
STEVENS POINT  CLOUDY    73  39  29 S8        29.57F
WAUPACA        MOSUNNY   77  40  26 S12       29.58S
WAUTOMA        PTSUNNY   76  43  30 SE13G23   29.57
WISC RAPIDS    MOSUNNY   77  39  25 S8        29.56F
CAMP DOUGLAS   CLOUDY    72  41  33 S8        29.54F
$$

WIZ011>013-019>022-031-037>040-048>050-252100-
NORTHEAST WISCONSIN

CITY           SKY/WX    TMP DP  RH WIND       PRES   REMARKS
ANTIGO         MOSUNNY   68  45  43 SE13      29.60S
SHAWANO        PTSUNNY   75  43  30 S10G16    29.59F
OCONTO         MOSUNNY   67  49  54 SE9G17    29.62F
STURGEON BAY   MOSUNNY   61  52  72 SE17G28   29.65F
GREEN BAY      CLOUDY    72  53  51 SE15      29.61F
MANITOWOC      MOSUNNY   55  47  74 S13       29.66F
APPLETON       MOSUNNY   73  41  31 SE14G21   29.58F
CLINTONVILLE   CLOUDY    73  43  33 SE10G18   29.58F
OSHKOSH        CLOUDY    74  44  34 S14       29.59F
$$

WIZ032>034-041-042-053>061-252100-
SOUTHWEST WISCONSIN

CITY           SKY/WX    TMP DP  RH WIND       PRES   REMARKS
LA CROSSE      LGT RAIN  68  50  52 CALM      29.54S
SPARTA         LGT RAIN  70  44  39 S3        29.55S
VIROQUA        CLOUDY    67  44  42 S6        29.54F
BOSCOBEL       CLOUDY    70  46  42 E6        29.51F
PRAIRIE DU CHI CLOUDY    69  48  46 E3        29.52R
PLATTEVILLE    PTSUNNY   71  47  42 SE16      29.53F
$$

WIZ056-057-062-063-064-067-068-252100-
SOUTH CENTRAL WISCONSIN

CITY           SKY/WX    TMP DP  RH WIND       PRES   REMARKS
REEDSBURG      CLOUDY    71  44  37 S5        29.54F
BARABOO/DELLS  CLOUDY    71  38  30 S14       29.56S
LONE ROCK      CLOUDY    69  44  40 SE7       29.53F
MINERAL POINT  CLOUDY    72  45  37 SE10      29.53F
MADISON        CLOUDY    71  40  32 S13       29.57F
MIDDLETON      CLOUDY    73  39  29 S13G18    29.57F
WATERTOWN      CLOUDY    73  47  39 S10       29.59F
MONROE         CLOUDY    70  45  40 SE13G18   29.55F
JANESVILLE     LGT RAIN  72  48  43 SE12      29.55F
$$

WIZ051-052-058>065-066-070>072-252100-
SOUTHEAST WISCONSIN

CITY           SKY/WX    TMP DP  RH WIND       PRES   REMARKS
MILWAUKEE      CLOUDY    68  52  56 SE16      29.64F
WAUKESHA       SUNNY     72  48  43 SE15G21   29.63F
MILWAUKEE/TIMM SUNNY     72  45  37 SE10      29.63F
RACINE         MOSUNNY   66  49  54 S14       29.66F
KENOSHA        CLOUDY    69  50  50 SE15      29.64F
FOND DU LAC    CLOUDY    74  44  34 S15G25    29.59F
SHEBOYGAN      CLOUDY    62  52  69 S14       29.65F
WEST BEND      CLOUDY    68  48  49 SE15      29.62F
JUNEAU         CLOUDY    71  44  37 SE16G22   29.60F
$$

LSZ147-162-252100-
LAKE SUPERIOR

STATION/POSITION TIME  TEMP    WIND        PRES    WAVE
                       AIR SEA DIR/SP/G            HT/PER
                 (UTC) (F)     (DEG/KT/KT) (MB)    (FT/S)
DEVILS ISLAND    2000   40      50/ 22/ 25 1004.2S
SAXON HARBOR     1940   41     310/  7/ 10 1003.0R
$$

LMZ867-665-643>646-252100-
LAKE MICHIGAN

STATION/POSITION TIME  TEMP    WIND        PRES    WAVE
                       AIR SEA DIR/SP/G            HT/PER
                 (UTC) (F)     (DEG/KT/KT) (MB)    (FT/S)
CHAMBERS ISLAND  1940   61     130/  9/ 15 1004.1F
N MID LAKE BUOY  1950   41 37   80/  6/  8 1007.1F   1/ 4
NORTHPORT PIER   1940   46     120/ 10/ 13 1005.4F
SISTER BAY       1806   61     180/ 26/ 30   N/A
KEWAUNEE LAKESHO 1948   47     170/ 11/ 13 1004.5F
SHEBOYGAN LAKESH 2000   45     150/  6/  7 1004.2F
PORT WASHINGTON  1930   51     170/  6/  8 1005.1F
MILWAUKEE LAKESH 1950   50     140/ 14/ 15   N/A
S MID LAKE BUOY  1850   48 41  110/  8/  8 1005.5F   1/ 3
KENOSHA   LAKESH 2000   54     190/  5/ 11 1004.1
$$

TC  - TEMPERATURE IN CELSIUS
VSB - VISIBILITY IN STATUTE MILES
WCI - WIND CHILL INDEX
HX  - HEAT INDEX





USA.gov is the U.S. government's official web portal to all federal, state and local government web resources and services.